Wind_Speed
15 15 16 16 18 20 21 21 20 19 17 16 15 15 14 12 11 10 10 9 10 10 10 10 10 10 10 9 9 8 7 8 8 8 8 8 9 9 9 9 9 10 10 10 10 10 10 10 9
13 14 14 14 17 19 21 21 20 18 17 16 14 14 13 12 11 10 9 9 9 9 9 9 9 9 9 9 8 7 6 6 6 7 7 7 7 8 8 9 8 9 9 9 9 9 9 9 9
12 12 13 14 16 19 21 21 20 19 18 16 15 14 12 12 11 10 9 8 9 8 8 8 8 9 8 8 8 7 6 6 5 5 6 6 6 7 7 7 8 8 8 8 8 8 9 8 8
9 10 12 14 15 18 19 20 20 19 18 16 15 14 12 12 11 10 9 8 8 8 8 8 8 8 8 7 7 7 6 5 5 5 5 6 6 6 7 7 8 8 8 8 8 8 8 8 8
7 9 12 13 14 15 18 19 19 19 18 18 16 15 14 13 12 11 9 8 8 8 8 8 7 7 7 7 7 6 6 5 5 5 5 6 5 5 6 6 7 7 7 7 7 7 8 7 7
7 10 11 13 15 15 17 18 17 17 17 16 16 15 14 14 13 11 10 9 8 8 7 7 7 7 7 6 7 6 5 5 5 5 4 4 5 5 5 5 6 6 6 6 7 7 7 7 7
7 9 11 12 14 14 16 16 16 16 16 16 16 15 14 14 13 11 10 9 8 8 7 7 8 7 7 7 6 6 5 4 5 4 4 4 4 4 5 5 5 4 5 6 6 7 7 7 7
7 8 9 11 12 13 14 14 14 15 16 17 17 15 14 14 13 12 11 10 9 9 9 9 8 7 8 8 8 8 6 5 4 4 4 4 4 4 4 3 4 4 5 5 6 6 6 6 7
4 6 6 8 9 10 11 12 14 15 15 16 16 15 14 13 13 12 11 11 10 10 9 9 9 8 7 8 8 7 6 6 5 5 4 4 3 3 4 4 3 3 4 5 5 5 5 6 6
3 3 3 4 6 7 10 12 13 14 14 15 15 14 13 13 13 12 12 11 11 10 10 10 10 9 8 7 7 6 6 5 5 5 4 4 3 4 4 3 3 3 3 4 4 4 4 5 5
3 1 1 2 3 6 9 10 12 13 13 14 14 13 13 12 12 12 12 11 11 10 10 10 10 10 9 7 6 6 6 5 4 4 4 4 3 3 3 2 2 2 2 3 3 3 3 4 4
6 3 3 3 4 7 7 8 10 11 12 13 13 13 13 13 12 11 11 11 11 11 11 10 10 10 9 8 7 6 5 5 4 4 4 4 3 3 2 2 1 1 1 2 2 3 3 3 3
8 6 4 5 5 5 6 6 8 9 11 12 13 13 12 12 11 11 11 11 11 11 11 10 10 10 9 8 8 6 5 5 4 4 4 3 3 2 2 2 1 1 1 1 2 2 2 3 2
10 8 7 6 6 6 7 6 7 8 10 11 11 11 11 11 11 10 11 10 10 10 11 10 9 9 9 8 8 7 5 4 4 3 3 2 2 1 1 2 2 1 2 3 3 2 1 1 1
11 9 8 8 7 7 7 7 6 7 9 10 10 10 10 10 10 10 10 9 9 10 10 9 9 8 8 8 8 8 6 5 4 3 3 3 2 1 1 0 1 1 1 2 2 2 1 1 1
13 11 9 8 8 8 8 8 7 7 8 9 10 9 8 8 8 9 9 9 8 9 9 9 9 8 8 8 7 7 7 5 5 4 3 3 3 2 1 0 0 0 0 1 2 2 1 1 1
14 13 11 10 9 9 9 9 9 10 8 8 8 9 8 7 7 7 7 8 8 8 8 9 8 8 8 8 7 7 7 6 5 4 4 4 4 3 2 1 0 1 1 1 1 1 1 2 2
16 15 14 12 11 11 11 11 12 10 9 8 7 8 7 7 6 6 6 7 8 8 8 8 8 8 8 7 7 7 7 7 6 5 4 4 4 3 2 1 1 1 2 1 1 1 2 2 2
19 18 16 14 13 13 13 13 13 12 11 9 8 8 6 6 5 5 6 6 7 7 7 7 7 7 7 7 7 7 7 7 6 5 4 4 4 3 2 2 2 2 2 2 2 2 3 3 3
21 19 17 15 13 13 14 15 14 14 13 11 9 8 7 6 5 5 5 5 6 6 6 6 6 6 6 6 6 7 7 6 6 5 5 4 3 3 2 2 2 3 3 3 3 4 4 4 5
22 21 19 18 17 17 18 17 16 15 14 12 10 8 7 7 6 5 5 5 5 5 6 6 6 6 5 5 5 6 6 5 5 5 5 4 4 3 3 3 3 4 4 5 5 5 5 5 6
24 23 22 22 22 20 20 19 17 15 15 14 13 10 9 8 8 6 5 4 4 5 5 5 5 5 5 5 5 5 6 5 5 5 5 4 4 4 4 4 4 5 5 6 6 6 7 7 7
25 24 25 25 24 23 22 22 19 18 17 16 14 12 11 9 9 7 6 5 4 4 4 4 5 5 5 4 5 5 5 5 6 6 7 6 5 6 6 6 6 6 6 7 7 8 8 9 9
26 27 27 27 26 25 23 23 21 20 18 17 16 14 12 10 10 9 8 7 5 5 5 5 5 5 5 5 5 5 5 6 6 7 7 8 7 7 7 7 7 7 7 7 8 9 9 10 10
29 29 30 29 29 26 23 24 22 19 18 17 16 14 13 12 11 11 10 8 6 6 6 6 6 6 6 6 6 6 6 7 7 8 8 9 9 8 8 8 7 8 7 8 8 9 9 10 10
29 29 30 30 29 26 24 24 20 18 18 18 17 15 14 14 13 12 11 9 8 7 7 7 7 7 7 7 7 7 7 7 8 8 9 9 9 8 7 7 7 8 8 9 9 9 9 10 10
28 28 28 30 29 28 26 23 21 19 19 19 17 15 14 13 13 12 12 10 9 8 8 8 8 8 9 8 7 7 7 8 8 9 9 9 9 8 8 8 8 8 8 9 10 10 10 10 11
28 28 29 30 29 28 26 24 22 20 19 19 19 18 15 14 13 13 13 11 10 10 9 8 8 9 9 9 8 8 8 8 9 9 9 9 9 9 9 9 9 9 10 10 11 11 12 12 12
27 29 30 30 29 28 27 23 21 20 20 20 20 19 17 16 15 15 15 14 13 12 10 9 8 9 10 9 9 8 8 9 10 10 10 10 10 10 10 10 10 10 11 11 11 12 12 13 13
27 27 28 30 30 29 27 24 21 20 20 19 19 19 18 17 16 15 15 15 13 12 11 10 9 10 10 10 10 9 9 9 10 10 10 10 11 11 10 10 10 11 11 11 12 13 13 14 14
Wind_Direction
77 70 64 56 53 52 51 49 49 50 47 46 45 46 47 48 55 60 63 69 73 78 79 78 76 74 75 73 74 78 85 88 89 90 91 95 96 94 98 98 100 100 101 99 95 90 88 87 86
76 72 63 55 53 50 49 47 46 46 46 46 45 46 46 47 53 59 64 69 74 77 77 78 76 74 73 71 71 77 85 90 87 88 91 93 94 95 97 96 93 93 94 94 91 87 82 81 80
76 70 59 52 54 49 47 44 42 39 41 45 45 45 44 46 51 56 63 68 73 75 74 76 75 74 71 69 70 76 83 83 81 85 90 93 94 94 93 93 90 90 91 88 84 80 74 75 76
72 66 56 53 52 51 45 40 36 35 37 43 46 45 42 45 49 54 59 65 72 73 72 72 72 72 73 72 67 70 72 69 69 74 80 86 91 89 86 87 89 89 87 80 76 74 75 76 78
67 63 55 55 50 51 45 39 34 32 33 39 43 42 41 44 47 51 57 66 72 72 71 70 69 69 72 72 71 67 66 69 73 74 72 72 70 79 84 86 92 93 87 80 75 73 74 76 76
68 60 49 53 48 48 41 36 32 30 29 32 38 41 41 45 48 50 56 67 75 71 64 66 63 61 62 63 64 64 65 69 69 69 69 74 76 79 78 82 85 86 84 81 79 76 76 76 74
68 59 51 49 39 38 35 32 28 28 29 31 34 40 42 44 48 49 53 60 65 66 64 62 63 60 57 61 60 56 61 65 62 63 67 72 74 75 77 78 83 88 86 83 80 77 74 73 72
73 54 48 46 38 35 31 26 28 28 27 29 33 38 41 42 46 48 52 56 63 65 65 64 62 60 59 57 61 64 72 67 64 61 71 74 69 71 75 79 80 87 86 79 75 71 67 70 70
83 58 50 36 34 34 30 25 26 27 24 26 30 35 40 43 47 49 54 57 58 62 64 61 57 58 57 56 64 69 69 73 73 71 75 78 74 76 75 83 86 85 83 78 72 65 60 69 67
122 64 40 18 17 22 19 18 20 23 23 24 28 33 39 44 47 49 53 58 60 61 61 59 57 56 55 54 63 65 65 73 76 74 76 79 81 79 79 88 87 81 84 77 70 64 58 60 62
201 209 309 332 341 356 1 10 13 18 20 22 26 32 37 39 43 49 54 59 62 60 59 56 55 51 50 49 50 55 59 60 64 65 64 72 79 75 75 88 86 73 69 63 59 49 59 62 59
215 231 267 286 321 337 347 355 1 12 17 20 23 29 34 37 42 49 56 58 59 58 57 55 53 51 49 47 46 49 51 50 49 55 58 66 67 62 70 83 89 71 41 42 44 49 54 56 51
226 231 246 266 300 325 334 339 349 3 13 21 22 24 30 37 41 46 50 56 57 57 57 52 51 49 47 46 44 45 45 45 44 50 58 62 62 60 58 61 67 73 65 60 47 39 51 61 53
233 233 243 252 272 297 316 331 337 354 7 14 20 22 25 32 39 43 48 53 54 52 52 53 51 45 44 46 48 46 43 41 48 49 45 45 55 72 79 60 59 58 50 49 50 40 43 71 55
231 229 237 249 265 285 305 319 324 343 356 4 9 17 21 27 34 39 43 47 48 46 45 46 49 48 46 46 45 44 44 43 50 54 42 28 28 42 67 105 88 64 47 41 30 31 33 39 29
225 221 225 237 250 273 295 311 316 334 342 351 358 10 16 18 27 32 35 39 42 41 39 39 41 43 45 42 40 40 37 37 42 38 24 26 28 24 20 170 190 156 14 32 21 33 38 17 359
224 220 222 229 240 260 282 298 312 321 327 337 346 356 3 6 17 25 28 30 33 33 32 33 36 36 37 39 38 36 35 34 35 36 33 37 36 40 25 5 328 299 296 309 346 5 350 348 344
222 220 220 227 236 247 264 283 297 303 314 324 334 346 354 354 4 16 23 22 23 24 25 28 32 33 33 36 38 34 31 30 34 36 40 40 30 24 10 0 338 314 307 293 305 302 310 309 319
222 220 221 223 232 243 257 274 283 289 297 309 316 330 345 350 356 6 15 13 12 16 22 26 29 30 31 33 34 32 28 26 29 29 31 24 16 10 1 357 328 312 313 304 288 292 301 301 299
223 219 219 221 233 244 255 266 271 279 290 297 299 314 328 335 339 349 4 2 1 8 18 24 24 26 28 29 30 27 27 26 23 21 19 14 4 356 348 329 305 292 293 292 291 290 293 289 292
224 220 216 215 223 238 248 256 263 270 280 287 288 298 306 315 321 333 352 6 358 359 9 12 16 19 21 25 22 19 18 16 14 9 1 358 348 330 315 317 301 286 279 279 284 289 289 287 285
223 218 216 218 224 232 245 254 257 262 268 275 280 289 293 293 302 316 335 344 347 349 354 358 3 8 10 12 12 11 12 9 358 352 351 338 332 328 313 296 296 291 282 277 281 288 285 283 280
224 218 217 221 228 233 241 250 251 255 261 271 280 288 293 282 282 297 307 311 317 327 333 333 341 351 357 1 3 2 2 1 356 350 349 345 332 327 319 301 287 284 281 282 285 287 286 283 281
222 220 219 223 228 232 236 246 249 249 260 270 276 282 286 279 275 280 285 287 291 298 303 311 312 321 331 335 341 348 347 344 344 343 338 339 334 330 325 312 295 282 281 281 285 287 287 287 284
223 221 221 223 227 232 234 242 250 251 259 268 270 276 279 274 273 273 272 273 278 289 298 305 297 304 311 314 319 325 330 333 334 334 332 330 324 317 318 314 302 288 283 279 285 288 289 289 289
225 224 225 227 229 230 232 240 248 250 254 261 261 267 271 271 271 268 263 265 271 280 286 296 291 292 296 299 307 314 319 324 326 324 322 323 318 309 307 309 304 295 285 281 284 288 289 289 287
226 225 225 227 229 229 232 236 240 243 246 251 257 265 266 264 267 265 261 262 266 272 275 284 285 286 289 293 301 308 310 312 316 318 318 319 316 307 303 304 302 298 294 287 284 286 290 291 289
224 223 223 225 227 229 232 235 240 244 247 249 256 261 264 269 269 265 261 261 261 261 268 275 278 280 285 291 293 293 298 303 307 312 314 314 311 304 299 300 300 299 296 291 289 287 288 289 290
222 223 225 226 228 230 230 230 235 239 242 250 254 258 266 270 272 271 269 267 267 263 259 265 272 281 285 286 286 288 292 300 303 306 305 306 307 302 296 296 294 293 292 289 288 288 290 292 289
222 223 225 225 226 228 230 230 233 235 239 245 252 254 263 268 268 269 268 265 266 262 253 259 269 276 280 283 281 282 286 294 301 302 300 300 300 296 296 297 292 292 291 290 288 287 288 291 290
Height
5913 5912 5911 5911 5910 5909 5907 5907 5907 5906 5905 5903 5902 5901 5901 5901 5900 5901 5898 5895 5895 5895 5895 5894 5894 5894 5894 5893 5893 5893 5893 5893 5892 5892 5892 5892 5891 5891 5891 5891 5890 5890 5890 5890 5890 5890 5890 5890 5890
5914 5914 5914 5913 5911 5910 5910 5909 5909 5908 5907 5905 5904 5903 5903 5901 5900 5899 5898 5897 5896 5896 5896 5896 5896 5895 5895 5895 5895 5895 5895 5895 5894 5894 5894 5893 5893 5893 5893 5892 5892 5892 5892 5892 5892 5892 5891 5891 5891
5916 5916 5916 5914 5912 5911 5911 5911 5911 5910 5908 5907 5906 5905 5904 5903 5901 5900 5900 5898 5898 5898 5898 5897 5897 5897 5897 5897 5897 5897 5897 5896 5896 5896 5896 5895 5895 5895 5895 5894 5894 5894 5893 5893 5893 5893 5893 5893 5892
5919 5918 5917 5915 5914 5913 5912 5912 5912 5912 5910 5909 5908 5907 5906 5904 5902 5901 5900 5900 5899 5899 5899 5899 5899 5898 5898 5898 5898 5898 5898 5898 5898 5898 5897 5897 5897 5896 5896 5896 5896 5895 5895 5895 5895 5895 5894 5894 5894
5921 5919 5917 5916 5915 5914 5914 5914 5914 5914 5913 5911 5910 5908 5907 5905 5903 5902 5901 5901 5901 5901 5901 5900 5900 5900 5899 5899 5899 5899 5899 5899 5899 5899 5899 5898 5898 5898 5897 5897 5897 5897 5897 5897 5896 5896 5896 5895 5895
5922 5920 5919 5918 5917 5916 5916 5916 5917 5917 5915 5913 5912 5910 5908 5907 5905 5903 5903 5902 5902 5902 5902 5902 5901 5901 5901 5900 5900 5900 5900 5900 5900 5900 5900 5900 5900 5899 5899 5899 5899 5898 5898 5898 5898 5898 5897 5897 5896
5923 5921 5920 5920 5919 5919 5919 5919 5919 5918 5916 5915 5913 5911 5909 5908 5907 5905 5904 5904 5904 5903 5903 5903 5902 5902 5902 5901 5901 5901 5901 5901 5901 5901 5900 5900 5901 5900 5900 5900 5900 5900 5900 5900 5899 5899 5898 5898 5897
5923 5923 5921 5921 5921 5921 5921 5920 5920 5919 5918 5917 5915 5913 5911 5910 5908 5907 5906 5905 5905 5905 5904 5904 5903 5903 5903 5903 5902 5901 5901 5901 5901 5901 5901 5901 5901 5901 5901 5901 5900 5900 5900 5900 5900 5899 5899 5899 5898
5924 5924 5922 5922 5922 5922 5922 5922 5921 5920 5919 5917 5916 5915 5913 5911 5910 5909 5907 5907 5906 5906 5906 5905 5905 5904 5904 5904 5903 5903 5902 5902 5902 5902 5902 5902 5902 5902 5902 5901 5901 5901 5901 5901 5900 5900 5900 5899 5899
5925 5925 5924 5923 5923 5923 5923 5923 5923 5922 5920 5919 5918 5916 5914 5912 5912 5911 5909 5908 5908 5907 5907 5907 5906 5906 5905 5905 5904 5904 5903 5903 5903 5902 5902 5902 5902 5902 5902 5902 5902 5902 5902 5901 5901 5901 5900 5900 5899
5925 5925 5924 5923 5923 5923 5923 5923 5924 5923 5922 5921 5919 5918 5917 5915 5913 5912 5911 5910 5910 5909 5908 5908 5907 5907 5906 5906 5905 5905 5904 5904 5904 5904 5903 5903 5903 5903 5903 5903 5903 5903 5902 5902 5902 5901 5901 5900 5900
5925 5925 5924 5924 5923 5924 5924 5924 5924 5924 5923 5922 5920 5919 5918 5916 5915 5913 5913 5912 5911 5910 5910 5909 5908 5908 5907 5906 5906 5905 5905 5905 5905 5905 5904 5904 5904 5904 5903 5903 5903 5903 5903 5903 5902 5902 5901 5901 5900
5924 5925 5924 5923 5924 5924 5925 5926 5925 5925 5924 5923 5921 5920 5919 5918 5916 5915 5914 5913 5913 5912 5911 5910 5910 5909 5908 5907 5906 5906 5906 5905 5905 5905 5905 5904 5904 5904 5904 5903 5903 5903 5903 5903 5903 5902 5902 5901 5901
5923 5923 5924 5923 5924 5924 5925 5926 5926 5925 5925 5924 5923 5921 5920 5919 5918 5917 5916 5915 5914 5913 5912 5912 5911 5910 5909 5908 5907 5906 5906 5906 5906 5905 5905 5905 5904 5904 5904 5904 5903 5903 5903 5903 5903 5903 5902 5902 5902
5922 5923 5923 5923 5923 5924 5925 5926 5926 5926 5925 5924 5923 5922 5921 5920 5919 5918 5917 5916 5915 5914 5913 5913 5912 5911 5910 5909 5908 5907 5907 5906 5906 5906 5905 5905 5904 5904 5904 5903 5904 5903 5903 5903 5903 5903 5903 5902 5902
5920 5922 5923 5923 5923 5923 5925 5926 5925 5925 5925 5925 5924 5922 5922 5921 5920 5919 5918 5917 5916 5915 5914 5913 5912 5911 5910 5909 5909 5908 5907 5906 5906 5905 5905 5904 5904 5903 5903 5903 5903 5903 5903 5903 5903 5903 5903 5902 5902
5918 5920 5921 5922 5922 5922 5923 5924 5925 5924 5925 5925 5924 5923 5922 5922 5921 5920 5919 5918 5916 5915 5914 5913 5912 5912 5911 5910 5909 5908 5907 5907 5906 5905 5905 5904 5904 5903 5903 5903 5903 5903 5903 5903 5903 5903 5903 5902 5902
5916 5917 5918 5919 5920 5920 5921 5922 5924 5924 5924 5925 5924 5924 5923 5923 5922 5920 5919 5918 5917 5916 5915 5914 5913 5912 5911 5910 5909 5908 5907 5906 5906 5905 5905 5904 5904 5903 5903 5903 5903 5903 5902 5902 5902 5902 5902 5902 5902
5912 5914 5915 5917 5917 5918 5919 5920 5921 5922 5923 5924 5924 5923 5923 5923 5922 5921 5920 5919 5918 5917 5916 5914 5913 5912 5911 5910 5909 5908 5907 5906 5906 5905 5905 5904 5904 5903 5903 5903 5902 5902 5902 5902 5902 5902 5901 5901 5900
5908 5910 5912 5914 5914 5915 5917 5918 5920 5920 5921 5922 5922 5922 5922 5922 5922 5921 5919 5919 5918 5917 5916 5915 5913 5912 5911 5910 5910 5909 5907 5906 5906 5905 5904 5904 5903 5903 5902 5902 5902 5902 5901 5901 5901 5901 5900 5900 5899
5904 5907 5909 5910 5911 5913 5914 5916 5917 5918 5918 5919 5920 5920 5921 5921 5921 5920 5919 5918 5918 5917 5916 5915 5913 5912 5912 5911 5910 5909 5907 5906 5906 5905 5904 5903 5902 5902 5901 5901 5901 5900 5900 5900 5900 5900 5899 5899 5898
5900 5903 5905 5906 5908 5909 5911 5912 5913 5914 5915 5917 5918 5919 5919 5919 5920 5919 5918 5918 5917 5916 5915 5915 5914 5913 5911 5911 5910 5908 5907 5906 5906 5905 5903 5902 5902 5901 5900 5900 5900 5899 5899 5898 5898 5898 5898 5897 5897
5896 5899 5901 5902 5903 5905 5907 5909 5911 5911 5912 5914 5915 5916 5916 5917 5918 5918 5918 5917 5916 5915 5915 5914 5913 5912 5911 5910 5909 5908 5907 5906 5905 5904 5903 5902 5901 5900 5899 5898 5898 5898 5897 5897 5896 5896 5896 5895 5895
5890 5893 5896 5898 5899 5902 5904 5905 5907 5908 5910 5911 5913 5913 5914 5915 5916 5916 5916 5915 5914 5914 5913 5913 5912 5911 5910 5909 5909 5908 5906 5906 5905 5903 5902 5901 5900 5899 5898 5897 5896 5896 5895 5895 5894 5894 5893 5893 5892
5884 5888 5891 5893 5895 5898 5900 5900 5903 5906 5907 5908 5909 5910 5911 5912 5913 5913 5913 5913 5913 5912 5912 5911 5909 5909 5909 5908 5908 5907 5905 5904 5903 5902 5901 5899 5898 5897 5896 5895 5894 5894 5893 5893 5892 5892 5891 5890 5890
5878 5882 5886 5889 5891 5894 5896 5897 5901 5902 5903 5904 5905 5906 5908 5909 5910 5910 5911 5911 5911 5910 5909 5909 5908 5908 5908 5907 5906 5905 5904 5903 5902 5901 5899 5898 5896 5895 5894 5893 5892 5892 5891 5890 5890 5889 5888 5888 5887
5873 5877 5881 5884 5886 5889 5891 5893 5895 5897 5898 5899 5900 5902 5904 5905 5906 5907 5907 5908 5908 5907 5906 5906 5906 5906 5906 5905 5904 5903 5902 5901 5900 5899 5897 5896 5894 5893 5893 5891 5890 5889 5889 5888 5887 5887 5886 5885 5884
5868 5872 5875 5878 5881 5884 5887 5889 5891 5892 5894 5895 5896 5897 5900 5901 5902 5903 5903 5904 5904 5904 5904 5904 5904 5904 5904 5903 5902 5901 5900 5899 5898 5897 5895 5894 5892 5891 5890 5889 5888 5887 5886 5885 5885 5884 5883 5882 5881
5863 5867 5869 5873 5876 5880 5882 5886 5886 5888 5890 5891 5892 5893 5895 5897 5898 5899 5900 5900 5901 5901 5901 5902 5901 5901 5901 5900 5899 5899 5898 5897 5896 5894 5893 5892 5890 5889 5888 5887 5885 5884 5883 5882 5882 5881 5880 5879 5878
5857 5861 5864 5868 5871 5874 5877 5883 5882 5883 5885 5887 5887 5888 5890 5892 5894 5895 5896 5896 5897 5897 5898 5899 5898 5898 5898 5897 5896 5896 5895 5894 5893 5891 5890 5889 5887 5886 5885 5884 5883 5882 5881 5880 5879 5878 5877 5876 5875